Location: San Antonio
(29.4240°N, 98.4930°W)
Time: 19:54:48
(UTC-05:00)

ISS - All Passes

Search period start: 15 September 2014 00:00
Search period end: 25 September 2014 00:00
Orbit: 414 x 417 km, 51.6° (Epoch: 15 September)

Date Brightness Start Highest point End Pass type
(mag) Time Alt. Az. Time Alt. Az. Time Alt. Az.
15 Sep - 04:35:52 10° SW 04:39:11 73° NW 04:42:30 10° NE visible
15 Sep - 12:46:01 10° NW 12:49:20 81° NE 12:52:39 10° SE daylight
16 Sep - 03:47:20 10° SSW 03:50:33 50° SE 03:53:47 10° NE night (unlit)
16 Sep - 05:25:55 10° WNW 05:27:28 13° NW 05:29:01 10° N visible
16 Sep - 11:57:31 10° NNW 12:00:38 37° NE 12:03:45 10° ESE daylight
16 Sep - 13:35:38 10° W 13:37:03 12° SW 13:38:28 10° SSW daylight
17 Sep - 02:59:13 10° S 03:01:57 24° SE 03:04:40 10° ENE night (unlit)
17 Sep - 04:35:58 10° W 04:38:35 21° NW 04:41:13 10° NNE visible
17 Sep - 11:09:15 10° NNW 11:11:50 21° NE 11:14:24 10° E daylight
17 Sep - 12:45:43 10° WNW 12:48:29 24° SW 12:51:14 10° S daylight
18 Sep - 02:12:04 10° SSE 02:13:21 12° SE 02:14:39 10° ESE night (unlit)
18 Sep - 03:46:37 10° WSW 03:49:45 39° NW 03:52:54 10° NNE night (unlit)
18 Sep - 10:21:26 10° N 10:22:54 12° NE 10:24:21 10° ENE daylight
18 Sep - 11:56:35 10° NW 11:59:49 52° SW 12:03:03 10° SSE daylight
19 Sep - 02:57:38 10° SW 03:00:57 84° NW 03:04:17 10° NE night (unlit)
19 Sep - 11:07:45 10° NW 11:11:04 69° NE 11:14:21 10° SE daylight
20 Sep - 02:09:01 10° SSW 02:12:11 43° SE 02:15:21 10° ENE night (unlit)
20 Sep - 03:47:12 10° WNW 03:49:02 14° NW 03:50:52 10° N night (unlit)
20 Sep - 10:19:08 10° NNW 10:22:11 33° NE 10:25:14 10° ESE daylight
20 Sep - 11:56:49 10° W 11:58:38 14° SW 12:00:27 10° SSW daylight
21 Sep - 01:20:53 10° S 01:23:26 21° SE 01:25:59 10° ENE night (unlit)
21 Sep - 02:57:16 10° W 03:00:01 24° NW 03:02:46 10° NNE night (unlit)
21 Sep - 09:30:47 10° N 09:33:12 19° NE 09:35:37 10° E daylight
21 Sep - 11:07:00 10° WNW 11:09:54 28° SW 11:12:47 10° S daylight
22 Sep - 00:34:20 10° SE 00:34:41 10° SE 00:35:02 10° ESE night (unlit)
22 Sep - 02:07:50 10° WSW 02:11:02 45° NW 02:14:15 10° NNE night (unlit)
22 Sep - 08:43:04 10° NNE 08:44:06 11° NE 08:45:07 10° NE daylight
22 Sep - 10:17:47 10° NW 10:21:04 62° SW 10:24:20 10° SSE daylight
23 Sep - 01:18:46 10° SW 01:22:05 83° SE 01:25:25 10° NE night (unlit)
23 Sep - 09:28:51 10° NW 09:32:08 59° NE 09:35:24 10° SE daylight
24 Sep - 00:30:06 10° SSW 00:33:10 36° SE 00:36:16 10° ENE night (unlit)
24 Sep - 02:07:52 10° WNW 02:09:57 16° NW 02:12:03 10° N night (unlit)
24 Sep - 08:40:09 10° NNW 08:43:06 29° NE 08:46:02 10° ESE daylight
24 Sep - 10:17:26 10° W 10:19:35 16° SW 10:21:44 10° SSW daylight
24 Sep - 23:41:58 10° S 23:44:17 18° SE 23:46:36 10° E night (unlit)
